User: anonymous   Login
Location: Radomski Observatory
(40.2854°N, 79.5145°W)
Time: 20:11:50
(UTC-05:00)
Language:

Uosat F - Orbit

View from above orbital plane
View from above orbital plane
View from above satellite
View from above satellite

Ground track
Ground track

The orbit data is extracted from the following two-line orbital elements,

1 21575U 91050B   17321.13815621  .00000032  00000-0  24344-4 0  9992
2 21575  98.7495 341.1370 0006953 196.8752 163.2205 14.40821692383307
Epoch (UTC): 17 November 2017 03:18:56
Eccentricity: 0.0006953
inclination: 98.7495°
perigee height: 751 km
apogee height: 761 km
right ascension of ascending node: 341.1370°
argument of perigee: 196.8752°
revolutions per day: 14.40821692
mean anomaly at epoch: 163.2205°
orbit number at epoch: 38330

The dashed part of the orbit path shows where the satellite is in the earth's shadow,  

DLR